DELTA 1 DEB, 10749

Orbit data source: Space-Track

DELTA 1 DEB, 10749 is space debris in SSO originally from a launch on Thu, 29 Jul 1976 UTC launched from the Air Force Western Test Range (AFWTR). Debris objects in space refer to the collection of defunct objects orbiting the Earth. Examples of debris include non-operational satellites, rocket bodies, and fragments generated from explosions, collisions, or faulty payload assembly.

Loading next visibility...
Identifier
10749, 1976-077AW
Orbit
SSO
Country
Flag of USUS
Related business
Manufacturer
Unknown
Mission
Spacecraft
Bus & Motor
Unknown
Mass
Unknown
Launch date (UTC)
1976-07-29 (50 years ago)
Launch vehicle
Unknown
Launch site
Air Force Western Test Range (AFWTR)
Object type
Payload
Rocket body
Debris
Shape & HBR
Unknown shape, 0.2 m
Radar Cross Section
Medium (>0.1 m² and <1 m²)

Expand to show TLE details & history
Last TLE update: 2 days ago

TLE from 2 days ago
0 DELTA 1 DEB
1 10749U 76077AW  26171.47332398 -.00000029  00000-0  14032-3 0  9999
2 10749 102.3441 260.4774 0090564 359.2022  19.8225 12.23536566228991
Epoch: 2026-06-20T11:21Z
TLE epoch observation values (Epoch: 2026-06-20T11:21:35.191Z)
Latitude
18.91532°
Longitude
177.11367°
Altitude
1,511.508 km
Speed
7.141 km/s
True Right ascension
17h 04m 47s
True Declination
18° 49' 13"
Sunlit
Object was in full shadow at epoch
Visualization orbit readout
Latitude
Unknown
Longitude
Unknown
Altitude
Unknown
Speed
Unknown
Apparent Right ascension
Unknown
Apparent Declination
Unknown
Sunlit
N/A
Visualization observer readout
Local Sidereal Time
23:27:02
Azimuth
Unknown
Elevation
Unknown
Doppler factor
Unknown
Orbital elements
Apogee altitude
1,646.816 km
Perigee altitude
1,502.766 km
Semi-major axis
7,952.928 km
Eccentricity
0.00906
Inclination
102.3441°
RAAN
260.4774°
Arg. of periapsis
359.2022°
True anomaly
20.17821°
Mean anomaly
19.8225°
Eccentric anomaly
19.99997°
Mean motion
3.06022 °/min
Orbital period
117.64 mins
BSTAR
0.00014032
Loading maneuver chart data...
Computing Atmospheric mass density...
Loading historical data...
Loading historical data...
Loading historical data...
Loading historical data...
Loading historical data...
Loading historical data...
Loading historical data...

Documentation

Showing up to 5 results
|